• In Russia
  • List of Countries
  • For 7 days
  • Water Temperature
  • Satellite Maps
  • Weather Map
  • Weather Widgets
  • user-avatar
    Login

    Hourly Weather Oktyabr

    Today, 26 September, Wednesday

    Time Temperature Precipitation Wind Pressure Humidity
    00:00 +6°C° 0 mm 4 mps 743 mmHg 84%
    01:00 +6°C° 0 mm 4 mps 743 mmHg 85%
    02:00 +5°C° 0 mm 4 mps 744 mmHg 85%
    03:00 +5°C° 0 mm 4 mps 744 mmHg 86%
    04:00 +5°C° 0 mm 4 mps 745 mmHg 87%
    05:00 +5°C° 0 mm 4 mps 745 mmHg 88%
    06:00 +4°C° 0 mm 4 mps 746 mmHg 89%
    07:00 +5°C° 0 mm 4 mps 746 mmHg 85%
    08:00 +6°C° 0 mm 4 mps 747 mmHg 82%
    09:00 +6°C° 0 mm 4 mps 748 mmHg 78%
    10:00 +7°C° 0 mm 4 mps 748 mmHg 74%
    11:00 +8°C° 0 mm 4 mps 748 mmHg 69%
    12:00 +10°C° 0 mm 4 mps 749 mmHg 65%
    13:00 +10°C° 0 mm 4 mps 749 mmHg 62%
    14:00 +10°C° 0 mm 4 mps 749 mmHg 60%
    15:00 +10°C° 0 mm 4 mps 749 mmHg 58%
    16:00 +9°C° 0 mm 3 mps 750 mmHg 60%
    17:00 +9°C° 0 mm 3 mps 750 mmHg 63%
    18:00 +8°C° 0 mm 2 mps 750 mmHg 66%
    19:00 +7°C° 0 mm 3 mps 750 mmHg 68%
    20:00 +5°C° 0 mm 3 mps 750 mmHg 71%
    21:00 +4°C° 0 mm 3 mps 750 mmHg 73%
    22:00 +4°C° 0 mm 3 mps 749 mmHg 74%
    23:00 +4°C° 0 mm 3 mps 749 mmHg 74%

    Tomorrow, 27 September, Thursday

    Time Temperature Precipitation Wind Pressure Humidity
    00:00 +4°C° 0 mm 4 mps 749 mmHg 75%
    01:00 +4°C° 0 mm 4 mps 748 mmHg 74%
    02:00 +3°C° 0 mm 5 mps 747 mmHg 74%
    03:00 +3°C° 0 mm 5 mps 747 mmHg 73%
    04:00 +3°C° 0 mm 6 mps 746 mmHg 71%
    05:00 +4°C° 0 mm 7 mps 745 mmHg 69%
    06:00 +4°C° 0 mm 7 mps 744 mmHg 67%
    07:00 +4°C° 0.2 mm 8 mps 743 mmHg 67%
    08:00 +3°C° 0.2 mm 9 mps 743 mmHg 67%
    09:00 +3°C° 0.2 mm 9 mps 742 mmHg 68%
    10:00 +3°C° 1.1 mm 10 mps 741 mmHg 71%
    11:00 +3°C° 1.1 mm 10 mps 740 mmHg 74%
    12:00 +3°C° 1.1 mm 10 mps 740 mmHg 78%
    13:00 +3°C° 1.1 mm 10 mps 739 mmHg 80%
    14:00 +5°C° 1.1 mm 9 mps 739 mmHg 83%
    15:00 +5°C° 1.1 mm 9 mps 739 mmHg 85%
    16:00 +5°C° 0.4 mm 8 mps 739 mmHg 84%
    17:00 +6°C° 0.4 mm 8 mps 739 mmHg 83%
    18:00 +6°C° 0.4 mm 7 mps 739 mmHg 82%
    19:00 +6°C° 0.2 mm 7 mps 739 mmHg 82%
    20:00 +5°C° 0.2 mm 6 mps 740 mmHg 82%
    21:00 +6°C° 0.2 mm 5 mps 740 mmHg 82%
    22:00 +6°C° 0 mm 5 mps 740 mmHg 83%
    23:00 +5°C° 0 mm 5 mps 741 mmHg 84%

    Day after tomorrow, 28 September, Friday

    Time Temperature Precipitation Wind Pressure Humidity
    00:00 +5°C° 0 mm 5 mps 741 mmHg 85%
    01:00 +5°C° 0 mm 5 mps 741 mmHg 86%
    02:00 +5°C° 0 mm 5 mps 741 mmHg 87%
    03:00 +5°C° 0 mm 5 mps 742 mmHg 88%
    04:00 +5°C° 0 mm 5 mps 742 mmHg 89%
    05:00 +3°C° 0 mm 5 mps 742 mmHg 91%
    06:00 +3°C° 0 mm 5 mps 742 mmHg 92%
    07:00 +5°C° 0 mm 6 mps 741 mmHg 86%
    08:00 +7°C° 0 mm 6 mps 741 mmHg 80%
    09:00 +8°C° 0 mm 7 mps 741 mmHg 74%
    10:00 +10°C° 0 mm 8 mps 741 mmHg 69%
    11:00 +11°C° 0 mm 9 mps 740 mmHg 65%
    12:00 +12°C° 0 mm 9 mps 740 mmHg 60%
    13:00 +13°C° 0 mm 9 mps 739 mmHg 61%
    14:00 +13°C° 0 mm 10 mps 739 mmHg 61%
    15:00 +14°C° 0 mm 10 mps 738 mmHg 61%
    16:00 +15°C° 0 mm 9 mps 738 mmHg 64%
    17:00 +13°C° 0 mm 8 mps 738 mmHg 66%
    18:00 +13°C° 0 mm 8 mps 737 mmHg 68%
    19:00 +13°C° 0.2 mm 8 mps 737 mmHg 71%
    20:00 +13°C° 0.2 mm 8 mps 737 mmHg 74%
    21:00 +13°C° 0.2 mm 9 mps 737 mmHg 77%
    22:00 +12°C° 0.3 mm 8 mps 738 mmHg 78%
    23:00 +10°C° 0.3 mm 7 mps 739 mmHg 79%

    29 September, Saturday

    Time Temperature Precipitation Wind Pressure Humidity
    00:00 +9°C° 0.3 mm 6 mps 740 mmHg 80%
    01:00 +8°C° 0 mm 5 mps 741 mmHg 82%
    02:00 +6°C° 0 mm 4 mps 742 mmHg 84%
    03:00 +5°C° 0 mm 3 mps 743 mmHg 86%
    04:00 +4°C° 0 mm 3 mps 743 mmHg 87%
    05:00 +3°C° 0 mm 3 mps 744 mmHg 88%
    06:00 +3°C° 0 mm 3 mps 745 mmHg 90%
    07:00 +4°C° 0 mm 3 mps 745 mmHg 82%
    08:00 +4°C° 0 mm 3 mps 746 mmHg 74%
    09:00 +5°C° 0 mm 4 mps 746 mmHg 67%
    10:00 +6°C° 0 mm 4 mps 746 mmHg 60%
    11:00 +7°C° 0 mm 4 mps 747 mmHg 54%
    12:00 +9°C° 0 mm 3 mps 747 mmHg 48%
    13:00 +10°C° 0 mm 3 mps 747 mmHg 47%
    14:00 +10°C° 0 mm 3 mps 747 mmHg 47%
    15:00 +10°C° 0 mm 3 mps 747 mmHg 47%
    16:00 +10°C° 0 mm 3 mps 748 mmHg 51%
    17:00 +9°C° 0 mm 2 mps 748 mmHg 55%
    18:00 +8°C° 0 mm 2 mps 748 mmHg 60%
    19:00 +7°C° 0 mm 2 mps 749 mmHg 62%
    20:00 +7°C° 0 mm 2 mps 749 mmHg 63%
    21:00 +6°C° 0 mm 2 mps 749 mmHg 65%
    22:00 +6°C° 0 mm 2 mps 749 mmHg 65%
    23:00 +6°C° 0 mm 2 mps 750 mmHg 65%

    30 September, Sunday

    Time Temperature Precipitation Wind Pressure Humidity
    00:00 +5°C° 0 mm 2 mps 750 mmHg 65%
    01:00 +5°C° 0 mm 2 mps 750 mmHg 65%
    02:00 +4°C° 0 mm 2 mps 750 mmHg 66%
    03:00 +4°C° 0 mm 2 mps 751 mmHg 66%
    04:00 +3°C° 0 mm 2 mps 751 mmHg 67%
    05:00 +2°C° 0 mm 2 mps 751 mmHg 69%
    06:00 +2°C° 0 mm 2 mps 751 mmHg 70%
    07:00 +3°C° 0 mm 2 mps 751 mmHg 66%
    08:00 +4°C° 0 mm 2 mps 752 mmHg 63%
    09:00 +4°C° 0 mm 3 mps 752 mmHg 59%
    10:00 +5°C° 0 mm 3 mps 752 mmHg 54%
    11:00 +6°C° 0 mm 4 mps 752 mmHg 49%
    12:00 +7°C° 0 mm 4 mps 752 mmHg 45%
    13:00 +7°C° 0 mm 4 mps 752 mmHg 44%
    14:00 +7°C° 0 mm 4 mps 752 mmHg 43%
    15:00 +8°C° 0 mm 4 mps 752 mmHg 42%
    16:00 +7°C° 0 mm 3 mps 752 mmHg 47%
    17:00 +5°C° 0 mm 3 mps 752 mmHg 52%
    18:00 +5°C° 0 mm 2 mps 752 mmHg 57%
    19:00 +5°C° 0 mm 2 mps 752 mmHg 60%
    20:00 +4°C° 0 mm 2 mps 752 mmHg 62%
    21:00 +4°C° 0 mm 2 mps 752 mmHg 64%
    22:00 +4°C° 0 mm 2 mps 752 mmHg 67%
    23:00 +4°C° 0 mm 2 mps 752 mmHg 70%

    1 October, Monday

    Time Temperature Precipitation Wind Pressure Humidity
    00:00 +2°C° 0 mm 3 mps 752 mmHg 73%
    01:00 +2°C° 0 mm 3 mps 752 mmHg 74%
    02:00 +2°C° 0 mm 3 mps 752 mmHg 75%
    03:00 +2°C° 0 mm 3 mps 752 mmHg 76%
    04:00 +2°C° 0 mm 3 mps 752 mmHg 75%
    05:00 +2°C° 0 mm 3 mps 752 mmHg 75%
    06:00 +2°C° 0 mm 3 mps 752 mmHg 74%
    07:00 +3°C° 0 mm 4 mps 752 mmHg 70%
    08:00 +5°C° 0 mm 4 mps 752 mmHg 65%
    09:00 +6°C° 0 mm 4 mps 752 mmHg 61%
    10:00 +7°C° 0 mm 5 mps 752 mmHg 58%
    11:00 +9°C° 0 mm 5 mps 752 mmHg 55%
    12:00 +10°C° 0 mm 5 mps 752 mmHg 51%
    13:00 +12°C° 0 mm 5 mps 751 mmHg 51%
    14:00 +12°C° 0 mm 5 mps 751 mmHg 50%
    15:00 +12°C° 0 mm 4 mps 751 mmHg 50%
    16:00 +11°C° 0 mm 4 mps 751 mmHg 55%
    17:00 +10°C° 0 mm 3 mps 751 mmHg 60%
    18:00 +8°C° 0 mm 2 mps 751 mmHg 65%
    19:00 +8°C° 0 mm 2 mps 751 mmHg 67%
    20:00 +7°C° 0 mm 2 mps 751 mmHg 68%
    21:00 +7°C° 0 mm 2 mps 751 mmHg 70%
    22:00 +6°C° 0 mm 2 mps 752 mmHg 72%
    23:00 +6°C° 0 mm 2 mps 752 mmHg 73%
    Show more